Simultaneous Nadir Overpasses (SNOs) Predictions

Prediction of SNOs between GOES-17 and AQUA Satellite Orbit:

Table of predicted SNOs for the next 14.0 days since TLE Epoch: 1/21/2023
Index Date Time (GOES-17) GOES-17 Lat,Lon AQUA Lat,Lon Distance(km) Time Diff (sec)
1 01/21/2023 10:12:06 0.02,-126.49 0.21,-127.32 94.40 80
2 01/23/2023 10:01:29 0.02,-124.17 -0.04,-124.02 17.72 80
3 01/25/2023 09:48:10 0.02,-121.84 -0.22,-120.70 130.08 80
4 01/27/2023 09:34:51 0.02,-119.52 -0.45,-117.39 243.10 80
5 01/27/2023 21:53:17 -0.02,-118.93 -0.77,-122.48 403.19 80
6 01/29/2023 09:21:31 0.02,-117.20 -0.68,-114.07 356.33 80
7 01/29/2023 21:39:56 -0.03,-116.61 -0.59,-119.15 289.97 80
8 01/31/2023 09:08:09 0.03,-114.87 -0.84,-110.74 469.58 80
9 01/31/2023 21:26:35 -0.03,-114.28 -0.36,-115.83 176.69 80
10 02/02/2023 21:13:13 -0.03,-111.95 -0.13,-112.51 63.32 80
